Location: Tamazert
(32.6352°N, 5.2072°W)
Time: 04:29:58
(UTC+00:00)

Vanguard 2 Rocket - Pass Details

Date: 11 October 2022
Orbit: 555 x 3321 km, 32.9° (Epoch: 04 December)

Event Time Altitude Azimuth Distance (km) Brightness Sun altitude
Rises 00:29:54 0° 280° (W) 6,791 11.3 -63.8°
Enters shadow 00:33:26 - 280° (W) 5,855 10.9 -63.6°
Reaches altitude 10° 00:34:58 10° 280° (W) 5,434 - -63.5°
Maximum altitude 00:49:48 80° 196° (SSW) 1,768 - -62.5°
Drops below altitude 10° 00:57:51 10° 110° (ESE) 3,122 - -61.8°
Sets 01:00:01 0° 109° (ESE) 3,831 - -61.6°
